Location: *
(49.7115°N, 15.0136°E)
Time: 17:49:58
(UTC+00:00)

Cosmos 1898 Rocket - Pass Details

Date: 27 February 2020
Orbit: 754 x 783 km, 74.0° (Epoch: 31 March)

Event Time Altitude Azimuth Distance (km) Brightness Sun altitude
Rises 17:15:42 0° 338° (NNW) 3,220 7.0 -6.8°
Reaches altitude 10° 17:18:08 10° 344° (NNW) 2,291 6.1 -7.2°
Maximum altitude 17:23:13 53° 61° (ENE) 930 3.6 -8.1°
Drops below altitude 10° 17:28:17 10° 138° (SE) 2,284 5.6 -8.9°
Sets 17:30:42 0° 143° (SE) 3,209 6.4 -9.3°
